| time (UTC) | temp C | wind direction | speed KPH | gust KPH | rain 1hr cm | rain 24hr cm | rain mn cm | humidity % | barometer mb |
| 20260506203057 | 10 | 136 | 0.0 | 0.0 | 0.13 | 0.33 | 0.33 | 85 | 1008.1 |
| 20260506201557 | 10 | 136 | 1.6 | 6.4 | 0.15 | 0.33 | 0.33 | 85 | 1008.1 |
| 20260506200059 | 11 | 137 | 0.0 | 6.4 | 0.15 | 0.30 | 0.30 | 85 | 1008.0 |
| 20260506194555 | 11 | 140 | 0.0 | 6.4 | 0.15 | 0.28 | 0.28 | 85 | 1008.0 |
| 20260506193052 | 11 | 108 | 0.0 | 3.2 | 0.15 | 0.23 | 0.23 | 85 | 1007.6 |
| 20260506191550 | 11 | 134 | 0.0 | 0.0 | 0.13 | 0.18 | 0.18 | 85 | 1007.3 |
| 20260506190052 | 11 | 133 | 0.0 | 4.8 | 0.10 | 0.15 | 0.15 | 85 | 1006.9 |
| 20260506184551 | 11 | 144 | 0.0 | 8.0 | 0.10 | 0.13 | 0.13 | 85 | 1006.8 |
| 20260506183049 | 12 | 146 | 0.0 | 0.0 | 0.08 | 0.08 | 0.08 | 85 | 1006.6 |
| 20260506181545 | 12 | 144 | 0.0 | 6.4 | 0.05 | 0.05 | 0.05 | 85 | 1006.5 |
| 20260506180047 | 12 | 144 | 0.0 | 3.2 | 0.05 | 0.05 | 0.05 | 84 | 1006.5 |
| 20260506174545 | 12 | 154 | 0.0 | 3.2 | 0.03 | 0.03 | 0.03 | 84 | 1006.4 |
| 20260506173121 | 12 | 140 | 0.0 | 4.8 | 0.00 | 0.00 | 0.00 | 84 | 1006.2 |
| 20260506171543 | 12 | 284 | 0.0 | 3.2 | 0.00 | 0.00 | 0.00 | 83 | 1006.1 |
| 20260506170045 | 12 | 307 | 0.0 | 4.8 | 0.00 | 0.00 | 0.00 | 83 | 1006.1 |
| 20260506164548 | 12 | 182 | 0.0 | 0.0 | 0.00 | 0.00 | 0.00 | 83 | 1006.1 |
| 20260506163043 | 12 | 182 | 0.0 | 1.6 | 0.00 | 0.00 | 0.00 | 82 | 1006.0 |
| 20260506161542 | 12 | 313 | 0.0 | 1.6 | 0.00 | 0.00 | 0.00 | 82 | 1006.1 |
| 20260506160045 | 12 | 327 | 0.0 | 4.8 | 0.00 | 0.00 | 0.00 | 82 | 1005.9 |
| 20260506154548 | 12 | 259 | 0.0 | 4.8 | 0.00 | 0.00 | 0.00 | 82 | 1005.8 |
| 20260506153046 | 12 | 288 | 0.0 | 1.6 | 0.00 | 0.00 | 0.00 | 82 | 1005.8 |
| 20260506151540 | 13 | 288 | 0.0 | 3.2 | 0.00 | 0.00 | 0.00 | 82 | 1005.7 |
| 20260506150043 | 13 | 281 | 1.6 | 12.9 | 0.00 | 0.00 | 0.00 | 82 | 1005.4 |
| 20260506144542 | 13 | 332 | 0.0 | 6.4 | 0.00 | 0.00 | 0.00 | 81 | 1005.4 |
| 20260506143042 | 13 | 292 | 1.6 | 17.7 | 0.00 | 0.00 | 0.00 | 79 | 1005.2 |
| 20260506141537 | 15 | 311 | 1.6 | 14.5 | 0.00 | 0.00 | 0.00 | 75 | 1005.1 |
| 20260506140037 | 16 | 285 | 4.8 | 12.9 | 0.00 | 0.25 | 0.00 | 73 | 1005.0 |
| 20260506134536 | 17 | 278 | 0.0 | 8.0 | 0.00 | 0.25 | 0.00 | 71 | 1004.7 |
| 20260506133038 | 17 | 262 | 0.0 | 1.6 | 0.00 | 0.25 | 0.00 | 69 | 1004.5 |
| 20260506131545 | 17 | 240 | 0.0 | 1.6 | 0.00 | 0.25 | 0.00 | 67 | 1004.3 |
| 20260506130049 | 17 | 150 | 0.0 | 0.0 | 0.00 | 0.28 | 0.00 | 62 | 1004.2 |
| 20260506124533 | 17 | 150 | 0.0 | 4.8 | 0.00 | 0.28 | 0.00 | 61 | 1004.1 |
| 20260506123033 | 17 | 150 | 0.0 | 1.6 | 0.00 | 0.28 | 0.00 | 59 | 1004.1 |
| 20260506121533 | 17 | 158 | 0.0 | 1.6 | 0.00 | 0.28 | 0.00 | 61 | 1004.3 |
| 20260506120032 | 17 | 167 | 0.0 | 6.4 | 0.00 | 0.28 | 0.00 | 60 | 1004.3 |
| 20260506114534 | 18 | 139 | 0.0 | 11.3 | 0.00 | 0.28 | 0.00 | 60 | 1004.3 |
| 20260506113029 | 18 | 200 | 0.0 | 6.4 | 0.00 | 0.28 | 0.00 | 58 | 1004.3 |
| 20260506111527 | 18 | 191 | 0.0 | 4.8 | 0.00 | 0.28 | 0.00 | 53 | 1004.5 |
| 20260506110025 | 18 | 142 | 1.6 | 9.7 | 0.00 | 0.28 | 0.00 | 59 | 1004.7 |
| 20260506104520 | 18 | 227 | 0.0 | 6.4 | 0.00 | 0.28 | 0.00 | 60 | 1004.7 |
| 20260506103021 | 17 | 121 | 0.0 | 6.4 | 0.00 | 0.28 | 0.00 | 61 | 1004.8 |
| 20260506101625 | 18 | 30 | 0.0 | 1.6 | 0.00 | 0.28 | 0.00 | 60 | 1004.8 |
| 20260506100016 | 18 | 146 | 0.0 | 6.4 | 0.00 | 0.28 | 0.00 | 61 | 1005.1 |
| 20260506094522 | 17 | 141 | 0.0 | 4.8 | 0.00 | 0.28 | 0.00 | 64 | 1005.0 |
| 20260506093015 | 17 | 143 | 1.6 | 11.3 | 0.00 | 0.28 | 0.00 | 66 | 1005.0 |
| 20260506091512 | 17 | 159 | 0.0 | 8.0 | 0.00 | 0.28 | 0.00 | 66 | 1005.0 |
| 20260506090005 | 16 | 209 | 0.0 | 8.0 | 0.00 | 0.28 | 0.00 | 69 | 1004.9 |
| 20260506084503 | 16 | 224 | 0.0 | 1.6 | 0.00 | 0.28 | 0.00 | 70 | 1005.0 |
| 20260506083100 | 16 | 166 | 0.0 | 1.6 | 0.00 | 0.28 | 0.00 | 76 | 1005.2 |
| 20260506081557 | 15 | 149 | 0.0 | 8.0 | 0.00 | 0.28 | 0.00 | 79 | 1005.3 |
| 20260506073047 | 12 | 224 | 0.0 | 6.4 | 0.00 | 0.28 | 0.00 | 85 | 1005.6 |
| 20260506071539 | 12 | 140 | 0.0 | 6.4 | 0.00 | 0.28 | 0.00 | 85 | 1005.4 |
| 20260506061531 | 10 | 119 | 0.0 | 3.2 | 0.00 | 0.28 | 0.00 | 83 | 1005.4 |
| 20260506044548 | 9 | 117 | 0.0 | 0.0 | 0.00 | 0.28 | 0.00 | 84 | 1005.5 |
| 20260506043018 | 9 | 117 | 0.0 | 0.0 | 0.00 | 0.28 | 0.00 | 84 | 1005.5 |
| 20260506041515 | 9 | 117 | 0.0 | 0.0 | 0.00 | 0.28 | 0.00 | 84 | 1005.5 |
| 20260506040015 | 9 | 117 | 0.0 | 0.0 | 0.00 | 0.28 | 0.00 | 84 | 1005.7 |
| 20260506034536 | 9 | 117 | 0.0 | 0.0 | 0.00 | 0.28 | 0.00 | 85 | 1005.8 |
| 20260506033013 | 9 | 117 | 0.0 | 0.0 | 0.00 | 0.28 | 0.00 | 85 | 1005.7 |
| 20260506031511 | 9 | 117 | 0.0 | 0.0 | 0.00 | 0.28 | 0.00 | 85 | 1005.7 |
| 20260506030010 | 10 | 117 | 0.0 | 0.0 | 0.00 | 0.28 | 0.00 | 85 | 1005.6 |
| 20260506024508 | 10 | 117 | 0.0 | 0.0 | 0.00 | 0.28 | 0.00 | 85 | 1005.7 |
| 20260506023006 | 10 | 118 | 0.0 | 0.0 | 0.00 | 0.28 | 0.00 | 84 | 1006.1 |
| 20260506021506 | 10 | 118 | 0.0 | 0.0 | 0.00 | 0.28 | 0.00 | 85 | 1006.3 |
| 20260506020005 | 10 | 117 | 0.0 | 0.0 | 0.00 | 0.28 | 0.00 | 85 | 1006.3 |
| 20260506014553 | 10 | 117 | 0.0 | 0.0 | 0.00 | 0.28 | 0.00 | 85 | 1006.3 |
| 20260506013051 | 10 | 117 | 0.0 | 0.0 | 0.00 | 0.28 | 0.00 | 85 | 1006.3 |
| 20260506011603 | 10 | 117 | 0.0 | 0.0 | 0.00 | 0.28 | 0.00 | 85 | 1006.2 |
| 20260506010056 | 10 | 117 | 0.0 | 0.0 | 0.00 | 0.28 | 0.00 | 85 | 1006.2 |
| 20260506004603 | 10 | 117 | 0.0 | 0.0 | 0.00 | 0.28 | 0.00 | 85 | 1006.1 |
| 20260506003056 | 11 | 117 | 0.0 | 3.2 | 0.00 | 0.28 | 0.00 | 85 | 1006.5 |
| 20260506001541 | 11 | 161 | 0.0 | 1.6 | 0.00 | 0.28 | 0.00 | 85 | 1006.5 |
| 20260506000040 | 11 | 163 | 0.0 | 0.0 | 0.00 | 0.28 | 0.00 | 85 | 1006.7 |
| 20260505234558 | 11 | 163 | 0.0 | 0.0 | 0.00 | 0.28 | 0.00 | 85 | 1006.8 |
| 20260505233039 | 11 | 163 | 0.0 | 0.0 | 0.00 | 0.28 | 0.00 | 85 | 1006.9 |
| 20260505231536 | 11 | 163 | 0.0 | 1.6 | 0.00 | 0.28 | 0.00 | 85 | 1006.9 |
| 20260505230041 | 11 | 163 | 0.0 | 0.0 | 0.00 | 0.28 | 0.00 | 85 | 1006.9 |
| 20260505224539 | 11 | 163 | 0.0 | 0.0 | 0.00 | 0.28 | 0.00 | 85 | 1006.9 |
| 20260505223034 | 11 | 163 | 0.0 | 0.0 | 0.00 | 0.28 | 0.00 | 85 | 1006.8 |
| 20260505221531 | 11 | 163 | 0.0 | 0.0 | 0.00 | 0.28 | 0.00 | 85 | 1006.8 |
| 20260505220041 | 12 | 163 | 0.0 | 0.0 | 0.00 | 0.28 | 0.28 | 85 | 1006.7 |
| 20260505214536 | 12 | 163 | 0.0 | 0.0 | 0.00 | 0.28 | 0.28 | 85 | 1006.9 |
| 20260505213028 | 11 | 163 | 0.0 | 0.0 | 0.00 | 0.28 | 0.28 | 85 | 1007.0 |
| 20260505211521 | 11 | 163 | 0.0 | 0.0 | 0.00 | 0.28 | 0.28 | 85 | 1007.0 |
| 20260505210020 | 11 | 163 | 0.0 | 0.0 | 0.00 | 0.28 | 0.28 | 85 | 1007.0 |
| 20260505204519 | 12 | 163 | 0.0 | 0.0 | 0.00 | 0.28 | 0.28 | 85 | 1006.8 |